Wind_Speed
11 11 11 11 10 10 10 10 11 12 14 15 15 15 15 15 15 15 14 14 14 15 15 15 16 17 17 18 18 19 19 19 19 19 20 20 20 19 19 19 20 21 22 21 21 22 22 21 20 20 19 19 19 20 21 22 22 23 23 24 24 24 24 24 24 24 23 22 22 22 23 23 23 23 23 24 25 25 25 26 26 27 27 28 28
10 10 11 11 10 10 10 9 10 11 13 14 15 15 15 15 15 15 15 14 15 15 15 15 16 17 18 18 18 18 19 19 20 20 20 20 20 19 19 18 19 19 20 20 20 21 21 20 19 19 20 19 19 19 21 21 21 22 22 22 22 22 22 23 23 23 22 22 22 22 21 22 22 22 23 23 24 25 25 25 26 26 27 29 29
9 10 11 12 10 9 9 9 10 11 12 13 14 14 14 14 14 15 15 15 15 15 16 16 16 17 17 17 18 18 18 19 20 20 20 20 20 20 20 19 19 18 19 19 19 20 20 19 19 20 20 20 20 20 20 20 21 21 21 21 21 20 21 21 21 21 21 21 21 21 20 20 21 21 22 23 23 24 25 25 25 26 26 27 29
9 10 10 11 11 10 9 9 10 11 12 12 13 13 13 14 14 15 15 15 15 15 16 16 16 17 17 17 18 18 18 19 19 20 20 20 20 20 20 20 19 18 18 19 19 19 18 19 20 20 21 21 21 21 19 19 20 20 20 20 20 19 19 20 20 20 20 20 20 20 20 20 20 20 21 22 22 23 24 25 25 25 26 26 27
8 9 9 10 11 11 9 9 9 10 12 13 13 13 13 14 14 15 15 15 15 15 16 16 16 16 16 17 18 18 18 19 19 19 20 20 21 21 21 20 19 18 18 19 19 19 18 18 19 20 20 20 20 21 20 19 19 19 20 19 19 19 19 19 19 19 19 19 19 19 20 20 20 20 21 22 22 22 23 24 24 25 25 25 26
8 8 8 10 12 12 11 10 11 11 12 13 13 14 13 14 15 15 15 15 15 15 16 16 16 16 16 16 17 17 18 18 18 18 19 20 21 21 21 21 20 20 19 18 17 17 18 17 18 18 18 19 19 21 21 19 20 20 20 19 18 18 18 19 19 19 19 19 19 19 19 20 20 20 21 21 22 22 22 23 23 24 25 25 26
8 9 8 10 12 11 11 12 12 13 12 13 13 14 14 14 14 15 15 15 15 15 15 15 15 16 16 16 17 17 17 17 17 17 18 19 20 21 21 22 21 20 19 17 15 15 16 17 17 17 17 17 18 20 20 20 20 20 19 18 18 18 18 18 18 18 18 17 17 18 18 19 20 20 21 21 21 21 22 22 23 23 24 25 25
9 9 9 10 11 11 11 12 13 13 13 13 14 14 14 14 14 14 15 15 15 15 15 15 15 16 17 16 16 16 17 16 16 16 16 17 19 20 20 20 20 19 17 16 14 15 15 16 17 17 17 16 17 19 20 20 20 20 19 18 17 17 17 18 18 18 17 16 16 17 18 19 20 20 20 20 20 21 22 22 23 23 24 24 25
10 10 11 11 11 11 11 12 13 13 14 14 14 14 14 14 14 14 14 15 15 15 15 16 16 16 16 16 16 16 15 15 14 15 15 16 18 19 18 19 18 17 16 16 15 15 15 14 14 15 15 16 16 18 19 19 19 19 18 17 17 17 17 17 18 17 17 16 16 17 18 19 19 19 19 19 19 20 21 22 22 23 23 24 24
12 12 13 13 13 12 12 12 13 14 14 14 14 14 14 14 14 14 14 14 15 14 15 16 16 16 15 15 16 15 14 13 13 14 14 15 17 17 17 17 17 16 15 15 15 15 14 14 13 13 14 15 16 17 18 19 18 18 17 16 16 16 16 17 17 16 16 16 16 17 18 18 18 18 18 18 19 19 20 21 21 22 22 23 23
13 13 13 14 14 13 13 13 14 15 15 14 14 14 14 15 15 14 14 14 14 14 15 16 16 15 15 14 15 15 14 13 14 14 14 14 15 15 15 16 15 14 14 15 15 14 13 14 13 13 14 15 16 17 18 18 18 17 16 15 15 15 16 16 15 15 16 16 17 17 17 18 17 17 17 17 18 18 19 19 20 20 21 21 21
13 14 14 14 14 13 14 14 14 14 15 15 14 14 14 15 15 15 14 14 14 15 15 16 16 16 15 14 15 15 14 15 14 14 14 14 14 14 13 14 14 13 13 14 14 13 12 13 13 13 13 15 16 17 17 18 17 16 15 14 14 14 15 14 14 14 15 16 17 17 17 17 16 16 17 16 16 17 18 18 18 18 19 19 19
14 15 14 14 14 13 14 14 13 13 14 15 15 14 14 15 15 15 15 15 15 16 16 16 17 16 15 14 14 14 14 14 14 13 14 13 13 13 13 13 12 11 12 13 13 12 12 12 13 13 13 14 15 16 16 16 16 15 14 13 13 13 13 13 13 14 15 16 16 16 16 15 15 16 16 15 15 15 16 17 17 16 17 17 17
15 15 15 15 14 13 13 14 13 12 13 14 14 14 14 15 15 15 16 15 16 16 16 16 17 16 14 12 12 13 13 13 12 11 11 11 12 12 12 12 12 11 11 12 12 11 11 12 12 12 13 14 15 15 15 15 14 13 13 13 12 11 11 11 12 13 14 15 15 15 14 15 15 15 15 15 15 14 14 15 15 16 16 16 17
15 15 15 15 14 13 13 13 13 12 13 14 14 14 14 14 14 15 15 16 16 15 15 15 15 14 13 12 11 11 12 12 10 10 9 10 11 11 12 12 12 11 11 11 11 11 10 11 11 12 13 14 14 14 14 14 13 12 12 12 11 10 10 10 11 12 13 13 13 14 13 14 14 14 14 14 15 15 14 15 15 16 17 18 18
15 15 15 15 14 14 13 13 13 13 13 13 13 14 13 13 14 14 14 14 14 14 14 13 13 13 13 14 11 9 11 11 9 9 9 9 10 11 11 11 11 12 12 12 11 11 10 11 12 12 13 13 13 13 12 12 12 12 12 11 10 9 9 9 10 11 11 12 13 13 13 14 15 15 15 15 16 16 16 17 18 18 19 19 20
15 16 15 15 15 14 14 13 13 13 13 12 12 13 13 13 13 13 13 13 13 13 13 12 12 13 12 12 10 9 10 10 10 10 9 10 10 11 11 11 11 12 12 12 11 11 11 12 12 13 13 13 13 12 12 12 12 12 11 10 9 9 9 9 10 11 11 13 14 14 14 15 16 17 17 17 17 18 19 20 21 22 22 22 23
15 16 15 15 15 14 14 13 13 13 13 13 12 11 11 12 12 12 13 13 13 13 12 11 12 12 9 7 7 7 9 10 10 10 11 11 11 11 11 12 13 13 12 12 13 12 13 13 13 13 13 13 13 13 12 12 12 11 11 10 10 10 10 10 11 12 13 13 14 15 16 17 18 18 18 18 19 20 22 23 24 24 25 25 25
15 15 15 14 14 14 14 13 12 11 11 11 11 10 10 11 11 12 12 12 12 12 11 12 12 11 9 7 6 7 8 9 10 10 11 11 11 11 11 12 14 14 14 14 14 14 15 15 14 14 14 14 13 13 13 12 12 12 11 11 11 11 11 12 12 13 14 14 16 16 18 19 19 19 19 20 21 21 22 23 24 24 25 25 25
15 15 14 13 12 12 12 11 11 9 9 9 10 9 10 11 11 11 11 12 12 10 10 12 11 8 8 7 6 7 9 9 9 10 10 9 10 10 11 12 14 14 15 15 15 15 16 16 14 14 14 14 14 14 13 13 13 13 12 12 13 13 13 14 14 15 15 16 17 17 20 21 20 19 19 20 21 20 20 21 22 23 23 23 23
13 13 11 10 10 9 9 9 8 8 8 9 9 9 10 11 11 11 11 11 10 7 8 9 6 5 6 6 7 8 9 9 9 9 10 10 10 11 11 11 12 13 14 15 15 15 15 15 14 13 13 12 12 13 13 14 14 15 14 14 14 15 16 16 16 16 17 18 18 18 21 22 20 18 18 19 21 20 18 20 21 21 21 21 21
11 10 9 7 6 6 7 6 6 7 8 9 9 9 10 11 11 11 10 9 6 5 6 6 3 4 6 6 8 8 8 9 9 10 10 10 11 11 11 11 11 12 13 13 14 14 14 14 13 12 11 10 10 10 11 13 14 15 15 15 15 16 17 17 17 17 17 18 18 20 22 21 19 18 17 19 22 20 19 20 20 21 20 20 20
9 8 6 5 4 5 5 5 6 7 8 8 8 8 9 10 10 9 8 7 5 5 5 4 4 5 7 8 9 9 9 10 10 11 11 11 11 11 11 11 11 11 11 12 12 13 13 12 12 11 10 9 10 11 12 12 12 13 13 13 14 15 16 15 16 16 16 16 17 21 22 19 19 18 18 20 21 20 19 19 20 21 20 20 21
6 6 5 4 4 5 5 5 5 6 7 7 7 8 9 9 8 8 7 7 6 5 5 6 5 6 7 9 9 9 9 9 9 10 10 10 10 10 9 9 10 10 10 10 11 11 12 12 11 11 10 10 12 13 13 12 12 12 12 12 13 14 14 14 14 14 15 15 17 20 20 20 19 19 18 19 20 19 18 19 20 20 20 21 21
5 5 5 5 5 5 5 5 5 6 6 7 7 8 10 10 8 7 7 8 7 6 6 7 6 6 7 8 8 8 8 8 7 7 8 7 7 7 7 7 8 9 9 9 10 11 11 12 11 11 10 11 13 13 12 12 11 12 12 12 13 14 14 13 13 14 15 16 17 18 18 19 19 18 19 19 19 18 17 18 20 20 20 20 20
4 5 5 5 4 4 5 5 5 5 6 7 7 7 9 10 9 8 8 7 7 7 7 6 6 6 6 6 7 7 7 7 7 6 6 5 5 5 6 7 8 8 9 9 10 10 11 11 10 10 10 10 11 11 11 10 11 11 11 10 11 11 12 13 13 13 14 15 17 18 17 18 19 19 20 20 20 19 19 19 20 21 21 21 22
3 4 4 4 3 3 3 4 4 5 6 7 8 8 8 9 10 9 8 8 7 7 7 7 7 7 8 9 9 8 8 8 8 8 8 7 7 7 7 8 8 9 10 10 10 11 11 9 8 8 8 9 9 10 10 10 10 10 9 9 9 10 11 12 13 13 13 15 19 20 18 18 19 20 20 21 21 20 20 21 21 22 24 24 24
2 3 2 2 2 3 3 4 5 6 7 8 9 9 9 9 10 11 10 9 8 7 7 7 9 10 11 12 12 11 10 9 9 10 10 10 10 9 9 9 9 10 11 11 12 12 12 10 9 9 9 10 10 11 11 11 12 11 10 10 11 11 12 13 14 15 14 17 21 20 19 19 19 20 20 21 22 22 22 22 23 24 25 25 26
2 2 3 3 3 4 4 5 7 8 8 8 9 9 9 10 10 11 11 10 10 9 8 8 10 11 12 13 13 12 11 11 10 10 11 11 10 10 9 9 10 10 12 13 13 14 13 12 12 12 12 13 13 14 14 14 15 14 13 13 13 13 14 15 16 16 16 19 22 21 19 20 20 20 21 22 22 23 23 23 24 26 26 26 27
2 3 4 5 5 5 5 7 8 8 9 10 10 10 11 11 11 11 11 11 10 10 9 9 10 10 10 11 12 12 12 11 11 11 11 11 11 10 10 10 10 11 11 12 13 14 13 13 14 14 15 15 15 15 16 16 17 17 16 15 15 15 16 16 17 17 17 19 22 22 20 20 20 21 21 22 22 23 24 24 25 26 27 27 27
3 3 4 4 5 6 7 8 8 9 10 11 11 11 11 11 11 11 11 11 10 10 10 10 10 10 10 11 11 11 11 11 11 11 11 10 10 11 11 10 11 11 11 11 12 13 13 14 14 15 15 16 16 16 17 17 18 19 19 18 18 17 17 17 18 19 19 20 22 23 22 22 21 22 22 22 23 24 25 25 25 26 27 27 28
5 5 4 5 6 7 8 8 9 10 11 11 12 12 11 11 11 11 11 11 11 11 10 10 11 11 11 11 11 11 12 12 12 12 12 11 11 11 11 11 11 11 12 12 12 13 14 15 15 15 16 17 17 17 18 18 19 20 20 20 20 20 20 20 20 21 21 21 22 24 24 24 24 24 24 24 23 24 26 26 26 27 26 27 29
6 6 6 7 7 8 8 9 9 10 11 11 11 11 11 10 10 10 10 10 10 11 11 11 11 11 11 12 12 12 12 12 13 13 13 13 13 13 12 12 13 13 13 13 13 13 14 15 16 16 17 17 17 18 19 19 20 20 21 21 21 21 21 21 21 22 23 23 23 25 26 26 25 25 26 26 25 25 27 27 27 28 28 29 30
8 8 8 8 8 8 9 9 10 10 10 10 10 10 10 9 9 8 8 8 9 9 10 10 11 11 11 12 12 12 13 13 13 13 13 13 13 13 13 14 14 14 14 15 15 15 15 16 16 17 17 18 18 18 19 20 20 21 21 22 22 22 22 22 22 23 24 24 25 26 26 26 26 26 26 27 27 26 27 28 29 29 30 31 31
9 10 9 9 9 9 9 9 9 9 9 10 10 10 10 10 9 9 8 8 8 9 9 10 11 11 12 12 12 12 12 12 12 13 13 13 13 12 13 13 14 14 15 15 16 16 16 17 18 18 18 19 19 19 20 20 21 21 22 23 23 23 23 23 23 24 25 25 26 26 26 26 26 26 26 28 28 27 28 29 30 31 31 31 32
11 11 10 10 9 9 9 9 8 8 9 9 10 10 10 10 9 9 9 9 9 9 9 10 11 11 12 12 12 13 13 12 12 12 12 12 12 12 12 13 14 15 16 16 16 17 17 18 18 19 19 19 20 20 20 20 21 21 21 22 23 23 23 23 24 24 26 27 26 27 27 26 27 27 27 28 29 29 30 31 31 32 32 32 33
11 11 10 9 8 8 8 8 8 8 9 9 9 9 9 9 9 9 9 9 10 10 11 11 11 11 12 12 13 13 13 13 13 13 13 13 13 14 14 13 14 15 16 18 19 19 19 19 19 20 20 20 21 20 20 21 21 21 21 22 23 23 24 24 24 25 27 27 27 27 28 28 28 29 29 30 31 31 32 32 33 33 33 33 34
10 10 10 9 8 8 8 8 9 9 9 9 9 9 9 10 10 11 11 12 12 12 13 13 12 12 12 12 13 13 14 14 15 15 15 16 16 16 16 16 16 16 16 18 20 21 21 21 21 21 22 22 22 22 22 22 22 22 23 23 24 25 25 25 26 27 27 28 28 28 28 29 30 31 31 31 32 32 33 33 33 32 33 34 34
10 10 9 9 9 8 9 9 8 8 8 8 9 9 10 11 12 12 13 14 14 14 14 14 13 13 12 12 13 14 15 15 16 16 17 18 19 19 20 20 20 19 19 19 20 21 22 23 23 23 23 24 24 24 24 25 25 25 25 24 25 25 26 26 27 28 28 28 29 29 29 30 31 31 32 32 32 33 33 33 32 32 33 34 34
10 10 9 9 9 10 9 9 8 8 8 9 10 10 11 12 12 13 13 13 13 13 13 13 13 13 13 13 14 14 15 16 17 17 18 19 20 21 21 21 22 22 22 21 21 21 22 24 25 25 25 25 25 25 25 26 26 27 26 26 26 26 26 27 27 28 28 29 29 29 29 30 31 31 32 32 32 32 32 32 32 33 33 34 35
10 10 10 10 10 10 9 9 9 9 10 10 11 12 12 12 12 12 12 12 12 12 13 13 13 14 14 15 15 16 16 17 18 19 19 20 20 21 22 22 23 23 23 23 23 22 22 24 25 26 26 25 25 26 26 26 27 27 27 27 27 27 26 26 27 28 28 29 29 29 29 30 30 30 31 31 31 31 31 32 33 34 34 34 33
12 11 11 11 10 10 9 10 10 11 11 11 12 12 12 13 13 14 14 14 14 14 14 15 15 15 15 16 16 17 18 18 19 20 21 22 23 23 24 24 24 25 25 25 25 24 24 24 25 27 28 27 26 26 26 26 27 27 27 27 27 27 26 26 26 27 27 27 28 27 28 29 29 29 29 30 30 30 31 32 33 33 33 32 32
12 12 12 11 10 10 11 12 12 12 12 12 12 13 13 14 15 15 16 16 16 16 16 16 17 17 17 18 18 19 19 20 21 22 23 23 24 25 26 27 27 28 28 28 28 28 26 25 24 25 27 29 29 27 26 26 26 26 27 27 26 26 25 25 25 25 25 26 26 26 26 27 28 29 29 30 30 30 31 32 32 32 31 31 31
13 12 11 11 11 12 12 12 12 12 13 13 13 14 14 15 15 15 16 16 17 17 17 18 18 18 19 19 19 20 21 22 22 22 23 24 25 26 27 28 28 29 30 30 30 30 29 28 27 25 25 27 29 30 28 27 27 26 26 26 27 26 25 25 25 25 24 25 26 26 26 26 27 28 29 30 30 31 31 32 31 30 30 31 31
13 12 11 12 12 13 13 13 13 13 14 14 14 14 15 15 16 16 17 18 18 18 19 20 20 20 21 21 21 21 22 24 25 24 24 25 26 27 27 27 28 28 29 29 30 31 31 31 30 29 27 26 27 30 31 29 28 27 26 26 27 27 26 25 25 25 24 25 25 25 25 25 27 28 29 30 30 31 31 30 30 30 30 30 29
12 12 12 13 13 13 13 13 13 13 13 13 13 14 14 15 16 17 18 19 19 20 20 21 21 22 23 23 25 25 24 25 26 27 26 26 26 27 28 29 29 29 29 29 30 30 31 32 32 32 31 28 26 27 30 31 30 29 28 27 27 27 26 25 25 25 25 25 25 24 24 25 27 29 30 30 30 30 29 29 29 29 28 27 25
13 13 13 13 13 12 12 13 13 13 13 13 14 14 15 16 17 18 18 19 20 20 21 21 21 22 22 23 24 25 26 26 27 28 29 29 29 29 30 30 31 31 31 31 30 30 31 31 32 33 34 33 30 27 28 30 32 31 29 28 27 27 27 26 25 25 24 24 24 24 25 26 28 29 29 29 28 28 28 28 28 28 26 23 21
13 13 13 13 12 12 12 12 12 13 13 14 15 16 17 17 18 19 20 20 21 21 22 22 22 23 23 24 24 25 26 27 28 28 30 31 32 32 32 33 34 34 33 33 32 32 32 32 32 32 33 34 34 31 28 28 30 31 30 29 28 28 28 27 26 25 24 23 25 26 26 27 27 27 27 26 25 26 27 27 27 26 23 20 19
12 12 12 12 12 12 13 13 13 14 14 15 15 16 17 18 19 20 21 21 22 22 23 23 24 25 25 26 27 28 29 30 31 32 33 33 33 34 35 35 35 36 36 36 34 34 34 34 34 33 33 33 34 34 32 29 28 29 30 30 29 28 28 27 27 26 25 26 27 27 27 26 25 24 23 23 23 24 25 26 25 23 20 19 19
12 12 12 13 13 13 14 14 14 14 15 15 16 17 18 19 20 21 21 22 23 24 25 26 27 28 29 30 31 33 34 35 37 38 39 39 39 40 40 40 39 39 39 39 38 37 37 35 35 35 34 33 33 33 34 32 29 28 29 29 28 28 27 27 27 27 26 27 27 27 26 26 23 21 21 21 21 22 23 24 23 21 18 18 19
12 13 13 14 14 14 15 15 15 15 16 17 18 19 19 20 21 21 22 23 24 25 26 28 29 30 32 34 35 37 39 40 42 43 44 45 45 46 46 47 46 45 44 43 41 40 38 37 36 35 35 34 33 32 33 34 32 29 28 27 27 27 27 27 27 27 27 26 26 25 25 24 22 20 19 19 19 20 21 22 21 19 18 18 18
Wind_Direction
257 258 265 270 274 277 276 275 272 267 264 264 265 266 268 270 273 273 271 272 270 268 268 268 268 267 264 262 258 256 254 251 250 249 249 249 250 251 254 255 256 255 254 254 255 257 258 259 260 262 262 261 258 253 250 249 250 252 254 255 257 259 261 263 265 267 270 271 271 272 272 272 272 273 272 272 272 273 272 272 272 271 271 271 272
261 262 267 271 274 277 275 271 270 269 264 262 262 263 265 268 273 276 276 277 276 275 274 273 272 271 270 268 265 262 259 256 252 251 250 250 250 253 256 257 258 257 254 252 252 254 256 257 257 256 255 254 254 251 250 249 249 250 251 253 254 256 258 260 262 264 267 269 269 270 270 271 272 272 271 271 271 271 271 271 270 270 269 268 268
260 262 265 268 272 275 275 269 264 266 265 262 260 262 266 267 272 276 276 277 277 277 276 274 272 270 269 268 266 264 261 259 256 254 253 252 253 255 257 258 258 258 255 250 250 252 254 255 253 251 250 250 251 250 249 248 246 247 247 249 250 253 254 256 258 260 263 265 267 268 269 269 270 270 270 269 269 269 270 270 270 269 269 268 267
260 261 265 272 277 278 275 271 268 265 265 266 264 266 270 271 275 278 279 280 279 277 274 272 271 270 268 266 266 265 262 261 259 258 256 255 254 255 256 258 258 257 254 250 248 250 252 252 251 249 249 249 251 251 252 249 247 247 247 248 249 251 253 254 256 258 260 262 264 266 267 268 268 268 269 268 268 268 268 269 270 270 270 270 269
272 272 274 278 281 281 279 278 279 274 270 270 270 271 274 278 280 282 283 282 280 277 274 273 272 272 272 271 270 268 265 262 260 259 259 257 256 255 255 255 257 254 251 249 248 248 248 250 250 249 249 248 249 250 253 252 250 250 250 250 251 252 254 255 256 257 258 260 263 265 267 268 268 268 268 267 267 268 268 269 270 271 272 272 272
285 287 286 281 283 290 292 287 286 285 280 275 275 277 280 283 284 285 286 284 281 278 276 275 274 274 275 274 271 268 266 263 261 260 259 258 256 254 254 253 254 254 253 251 250 250 250 251 251 249 248 245 245 248 249 250 249 248 249 250 251 252 252 253 253 253 254 256 259 262 265 267 267 267 268 268 269 270 271 271 271 273 274 274 274
280 285 287 284 288 297 298 292 288 287 287 283 280 280 282 285 287 287 287 286 283 280 278 275 274 274 274 273 272 271 268 264 261 260 258 257 256 254 253 253 253 253 253 252 253 253 253 254 251 246 244 243 243 245 246 246 245 245 246 247 248 249 249 249 250 251 253 257 260 261 264 265 265 266 267 269 271 273 275 275 275 276 276 276 275
276 280 284 287 291 298 296 293 290 287 286 283 281 281 283 286 288 288 287 285 282 280 278 275 274 274 275 274 274 272 268 264 260 259 256 253 254 252 252 253 253 253 251 252 254 253 253 253 251 247 244 243 244 244 245 244 243 244 244 245 246 247 248 249 251 253 256 259 262 264 265 266 266 267 268 271 274 276 278 278 278 279 278 278 277
277 281 285 289 291 294 295 295 294 291 286 282 281 281 283 285 286 286 285 282 280 280 279 276 275 276 278 277 274 271 269 264 259 259 258 254 253 252 251 252 253 253 253 253 253 252 251 250 249 249 245 243 245 246 247 246 244 245 245 246 247 248 250 251 253 255 259 261 263 264 265 266 268 271 273 275 277 279 280 280 281 281 280 280 279
281 283 287 288 288 291 295 297 297 294 288 284 282 282 283 284 284 284 284 283 281 281 280 278 278 277 277 276 272 269 269 266 259 260 263 259 256 253 250 250 251 252 251 251 252 252 251 250 248 247 246 245 247 249 250 250 248 247 247 249 250 252 253 254 256 259 262 263 263 264 265 267 270 273 277 278 279 279 280 281 282 282 281 280 280
287 287 288 287 287 290 293 295 297 294 288 285 283 282 283 284 285 286 285 285 284 282 281 280 279 277 276 275 274 269 266 262 258 261 265 260 256 253 249 249 251 250 248 249 251 251 250 251 250 247 246 247 250 252 252 252 251 251 251 251 253 255 256 258 261 263 266 266 265 265 266 268 271 274 275 276 278 278 278 279 280 281 281 280 280
287 288 288 287 288 291 293 294 295 294 287 283 282 283 283 284 286 286 285 284 284 283 282 281 279 279 277 275 275 272 266 260 258 261 261 256 254 254 249 247 248 245 245 247 248 247 248 251 252 252 253 253 254 254 253 253 254 255 256 257 258 259 261 263 265 266 268 267 267 267 268 269 271 272 272 272 274 275 277 277 278 279 280 282 283
287 286 287 287 290 293 294 293 293 292 287 283 281 281 282 284 286 286 286 286 286 285 283 282 282 282 278 274 271 270 268 262 260 261 258 253 251 250 243 242 244 242 241 245 246 245 247 253 255 255 254 254 254 254 255 256 256 257 258 260 261 263 266 268 269 268 267 267 268 269 269 269 269 269 270 271 271 272 275 278 278 278 279 281 283
289 287 287 286 290 292 291 292 292 290 285 282 281 281 282 284 285 285 286 287 286 285 285 286 285 284 281 277 270 265 266 263 261 262 257 250 247 244 237 236 241 240 240 244 247 247 248 252 253 251 250 250 252 254 256 256 256 256 256 258 261 265 270 272 269 267 267 268 268 267 267 268 268 270 271 273 273 273 274 277 279 280 280 279 278
288 288 287 285 287 289 289 291 292 289 283 283 284 284 283 281 282 285 287 287 288 290 292 292 291 289 284 277 269 263 264 263 259 259 254 247 246 244 235 233 239 242 241 242 243 245 247 247 249 252 252 252 252 252 253 255 256 257 258 260 265 269 272 272 269 267 268 269 267 266 267 269 270 272 273 273 274 275 277 279 279 280 280 279 277
289 287 288 286 286 287 288 290 289 286 283 283 285 284 282 281 283 286 288 289 292 297 298 298 294 287 276 269 264 258 260 261 257 256 256 254 249 243 235 231 239 245 243 241 239 239 241 243 250 254 251 247 246 245 248 252 255 256 258 261 265 267 266 265 266 266 266 266 266 267 268 269 270 271 271 273 275 278 281 282 282 280 279 279 278
290 288 288 285 285 287 288 288 286 285 285 286 286 285 285 285 287 288 291 294 298 300 296 294 291 285 273 261 255 248 250 256 260 265 267 266 258 243 231 228 239 247 245 242 239 236 238 246 254 255 248 243 241 241 244 248 251 253 255 257 259 262 260 257 259 262 263 264 266 269 269 268 270 271 273 276 281 284 283 282 281 280 278 277 277
290 289 287 283 284 286 287 286 284 285 287 289 290 290 290 291 293 295 299 302 303 301 294 289 285 287 282 260 250 246 250 258 266 276 274 267 260 246 234 236 243 246 242 241 242 240 243 252 258 257 252 247 244 243 243 245 248 250 252 255 257 261 260 256 256 259 262 265 267 270 272 272 274 277 280 285 287 287 285 282 280 278 277 276 276
289 288 286 283 283 286 288 286 284 285 287 291 294 296 298 301 304 305 306 307 308 303 292 284 278 279 284 273 261 256 258 265 271 280 277 267 261 256 253 254 254 250 245 246 249 249 252 260 264 261 256 252 249 247 246 245 247 250 252 256 259 260 260 259 259 261 263 266 270 273 274 275 278 283 288 291 289 286 285 284 282 281 279 278 277
286 287 287 286 288 292 292 290 288 290 294 295 297 302 309 314 316 313 312 312 308 298 287 288 278 266 281 282 269 266 269 272 272 275 276 274 275 275 272 268 264 258 254 255 257 257 260 265 267 263 256 254 255 255 255 254 254 255 256 259 262 264 264 263 264 266 269 270 273 275 276 277 280 286 292 291 286 284 284 285 285 284 283 282 282
285 285 287 290 296 302 303 300 296 296 297 294 298 309 319 322 321 319 321 320 307 291 292 302 292 261 278 284 275 272 273 275 273 272 274 277 279 278 276 271 268 263 259 258 259 260 262 264 264 259 255 255 260 262 265 265 263 262 262 263 265 268 269 268 269 271 272 273 274 276 275 277 282 288 292 288 285 283 282 285 289 288 285 284 284
285 283 288 296 304 313 315 309 299 295 294 296 304 314 322 323 323 324 329 331 312 295 303 306 298 275 275 278 283 284 282 282 279 277 278 278 276 274 271 268 266 263 260 260 260 262 262 261 259 256 257 259 265 270 271 269 268 266 264 264 264 267 270 272 274 275 276 275 277 278 277 281 286 289 289 285 284 284 284 288 292 291 287 286 286
288 287 292 298 309 318 322 315 301 296 297 303 311 319 324 322 324 327 335 346 331 310 314 309 296 289 283 283 290 295 293 290 288 285 284 283 281 277 270 264 260 257 256 257 258 258 257 257 258 261 264 269 275 273 268 268 270 270 268 267 266 266 269 272 275 277 278 277 279 280 281 285 288 287 283 282 286 288 289 290 291 290 289 290 291
288 284 283 287 301 312 320 319 309 306 309 319 328 335 334 327 325 327 336 349 348 332 328 326 318 309 302 299 299 302 302 300 298 295 292 288 284 281 276 270 262 256 254 254 255 256 257 260 264 269 273 277 274 269 267 268 271 273 273 271 269 268 269 271 274 276 276 275 278 282 284 286 287 286 282 283 289 293 294 291 290 291 291 292 292
286 277 278 287 294 303 314 320 318 323 336 345 349 349 346 342 338 332 333 339 344 344 337 332 327 321 316 312 312 316 319 318 311 303 298 295 294 296 293 285 272 264 261 260 262 265 269 272 273 274 275 273 270 269 270 271 273 275 276 275 272 269 269 271 273 274 273 273 280 286 287 285 285 285 285 286 289 293 294 294 293 292 292 292 293
290 282 284 292 296 301 311 321 328 343 360 4 1 358 355 356 355 347 339 336 338 340 336 326 316 313 312 312 318 325 328 325 318 310 309 314 320 320 312 302 292 283 278 275 276 282 286 282 276 273 272 272 273 273 271 270 274 276 278 276 272 270 271 272 272 274 272 273 285 293 290 286 286 287 288 289 290 292 294 294 293 292 292 294 295
298 295 295 302 309 312 314 326 343 2 12 14 15 11 5 4 4 1 354 346 341 337 333 321 308 306 306 309 312 315 317 318 317 317 319 321 320 315 310 308 304 298 293 290 290 296 296 289 281 275 273 276 277 274 270 271 276 277 276 271 270 272 274 275 274 277 274 279 291 295 291 287 286 288 289 291 293 293 294 293 293 293 293 294 295
323 324 324 326 334 345 350 354 5 15 16 14 16 14 10 7 5 5 0 353 347 338 328 318 312 312 314 317 320 321 319 317 315 314 313 312 309 306 302 299 298 295 294 294 294 297 296 289 286 281 280 285 284 279 276 278 280 280 278 272 272 273 274 275 276 277 274 281 292 294 292 290 287 288 289 291 294 295 294 292 292 293 292 293 293
7 24 33 34 30 31 29 24 22 19 16 12 11 10 8 8 7 6 2 358 354 348 340 331 328 327 327 328 330 332 331 327 322 317 315 314 312 309 305 300 296 294 293 295 296 297 296 290 286 284 286 289 288 285 282 283 283 283 281 278 277 274 274 274 274 275 272 280 294 295 291 291 289 287 288 289 292 293 292 291 291 292 292 292 292
38 47 44 45 44 40 34 27 20 14 10 6 4 4 5 7 8 7 5 2 358 356 354 351 349 346 344 342 341 341 340 339 335 330 327 325 322 318 314 311 308 304 301 299 299 301 301 298 293 292 293 293 291 288 286 285 286 285 285 283 280 278 277 276 275 276 273 277 292 296 291 291 291 289 289 290 292 292 292 292 292 292 293 293 293
46 45 39 37 35 31 24 15 11 8 6 3 2 2 3 5 6 5 3 1 358 357 357 356 355 354 353 351 349 347 346 345 342 339 336 333 330 327 323 321 317 313 309 306 305 306 307 305 301 300 299 298 296 293 291 289 289 289 289 288 286 285 282 281 279 278 276 276 286 293 293 294 294 293 293 292 293 293 293 294 293 293 294 293 292
45 42 35 31 30 25 18 12 8 6 4 3 1 1 1 2 2 359 356 354 352 350 349 348 348 348 347 346 345 344 342 341 339 338 336 334 332 329 327 324 320 316 312 309 307 306 305 303 302 301 300 298 297 296 294 292 292 291 291 291 290 289 287 285 283 282 281 281 285 290 291 292 294 295 295 294 293 293 292 293 292 292 293 292 292
42 39 36 33 28 21 15 11 8 7 6 3 1 359 359 359 357 353 348 345 342 340 338 337 338 337 337 337 336 335 334 333 332 331 331 330 328 327 325 323 320 316 312 308 304 302 300 299 298 298 297 296 296 295 294 293 292 292 293 292 291 290 289 288 287 286 286 287 288 289 289 291 293 295 295 295 294 293 292 292 291 290 289 290 292
42 40 39 35 29 22 18 14 13 12 11 9 7 4 1 359 355 350 345 340 335 334 333 333 332 330 329 329 327 326 326 325 324 323 322 321 320 319 318 316 314 311 308 306 303 301 298 297 296 295 294 294 294 293 292 292 292 293 293 293 292 292 292 291 290 290 290 289 288 288 290 292 293 294 295 293 292 291 290 290 289 288 288 289 290
43 41 38 35 31 26 23 20 19 17 16 17 14 10 5 2 358 353 348 343 339 337 336 334 331 329 328 326 325 322 320 318 317 316 315 313 311 309 307 306 304 301 300 298 297 296 294 293 292 292 292 292 292 292 291 291 291 292 292 292 292 292 292 292 291 291 290 289 289 289 290 291 290 291 290 288 288 288 287 287 287 288 289 290 290
46 42 37 33 29 26 22 18 17 16 15 16 14 10 6 1 357 352 345 340 337 334 333 330 328 327 325 323 322 318 315 312 309 308 308 306 304 302 300 298 298 297 295 293 290 289 287 286 286 285 285 285 285 285 286 287 288 288 289 289 289 289 289 289 289 290 288 287 289 290 290 289 288 287 287 287 288 288 288 288 289 290 291 291 292
48 46 42 38 33 26 19 15 13 12 12 11 9 6 0 354 348 343 339 335 332 330 327 325 323 322 320 318 317 314 311 309 307 306 305 304 301 299 297 296 295 296 296 295 293 290 287 284 282 282 281 280 279 278 277 277 278 279 280 281 282 283 284 284 285 286 285 285 287 288 289 289 288 288 287 287 288 289 289 289 290 291 291 291 291
47 47 46 43 36 28 21 17 14 13 12 9 4 359 353 348 343 341 340 338 337 333 330 328 325 323 321 319 316 314 313 311 310 309 308 306 304 302 300 298 296 295 294 294 294 293 291 288 285 283 281 280 279 278 277 275 273 273 274 276 278 279 280 282 283 284 284 285 286 287 288 288 288 287 286 286 287 288 288 289 290 290 291 291 291
48 49 47 44 38 33 29 24 19 16 13 9 4 359 356 353 350 349 347 345 343 339 336 332 330 327 325 322 319 317 315 313 312 310 308 307 305 303 301 300 298 297 295 293 293 292 292 291 290 288 285 284 283 282 281 279 278 277 276 277 279 280 281 282 284 284 284 285 286 286 287 287 287 286 286 286 286 287 288 288 289 290 290 290 290
56 55 52 48 43 40 38 34 29 26 22 17 12 9 6 3 360 357 354 351 348 345 341 337 335 332 329 326 322 319 316 314 312 309 308 306 304 303 302 301 301 300 299 297 295 293 292 292 292 290 288 287 287 286 285 283 282 281 280 280 279 279 280 282 283 283 282 284 285 285 287 287 286 285 286 286 287 288 288 289 290 289 289 290 291
66 62 58 54 52 50 47 43 38 33 28 22 17 12 8 4 1 359 356 353 350 347 345 342 339 336 333 331 327 324 321 318 315 312 310 308 305 304 302 302 302 302 301 300 298 295 292 291 290 290 288 286 286 286 286 286 285 284 282 281 280 279 280 281 282 283 283 283 284 285 286 286 286 286 287 287 288 288 289 290 291 291 291 292 293
70 66 62 58 55 52 47 42 36 31 26 21 16 11 7 3 1 359 357 354 351 349 347 344 342 339 336 334 331 329 327 324 322 319 316 313 311 308 306 305 305 305 305 304 302 299 295 291 289 288 288 287 284 283 283 285 285 286 285 283 282 281 280 281 281 282 284 284 285 286 287 288 288 288 289 289 289 290 292 293 293 293 294 294 294
67 63 59 55 50 45 41 37 33 29 26 21 18 13 9 7 5 3 2 0 358 355 353 349 347 345 341 339 336 332 330 327 325 323 322 320 317 315 313 311 310 310 310 309 307 304 301 296 291 287 286 286 285 283 282 282 283 285 286 285 284 282 281 281 282 282 283 285 285 286 288 289 289 290 291 291 291 293 294 294 294 295 295 295 295
60 58 54 51 46 43 40 38 34 32 28 23 20 16 13 10 9 7 4 3 1 359 358 354 351 346 342 340 336 332 330 327 324 323 323 322 320 317 315 313 312 310 310 310 309 308 305 301 297 292 288 285 285 284 282 281 281 282 283 285 284 283 282 282 282 283 283 284 285 286 288 288 289 291 292 293 294 296 296 296 296 296 295 294 294
59 57 53 50 47 45 43 40 36 32 27 22 19 16 12 9 7 5 2 0 358 357 357 354 350 345 341 339 334 332 332 328 324 323 322 321 319 317 315 313 310 308 307 306 306 306 305 304 301 297 292 287 284 283 282 281 280 280 281 282 283 284 284 283 283 284 284 284 285 286 288 288 289 291 293 295 296 297 297 297 296 295 293 293 294
59 56 53 50 47 45 41 38 34 29 23 19 16 13 10 5 3 1 357 356 354 352 351 348 345 342 340 337 333 331 331 328 324 323 320 316 313 313 313 310 308 306 304 302 302 302 301 301 301 299 297 293 287 282 281 281 279 278 278 279 280 282 282 281 282 283 283 283 284 285 287 288 291 292 294 296 296 296 297 296 295 292 292 295 297
56 53 51 49 45 41 37 33 30 26 20 14 10 7 4 1 358 356 354 352 350 348 346 343 341 339 337 334 331 330 328 326 323 322 319 316 314 312 311 309 306 304 302 300 299 298 297 296 297 297 298 297 293 286 281 279 279 277 276 276 277 278 279 280 281 281 283 283 283 283 285 287 289 291 293 294 295 296 297 296 294 294 298 302 302
49 46 44 43 40 36 32 28 24 19 14 9 6 3 1 358 356 353 351 350 348 347 345 344 342 339 337 335 332 330 327 325 322 320 318 315 314 312 310 307 304 303 301 298 298 297 295 293 292 292 292 294 294 290 284 279 278 276 275 275 275 276 277 278 278 279 281 283 283 283 284 285 286 288 291 293 296 299 299 297 296 299 305 305 303
43 39 37 35 32 29 25 22 19 15 12 8 5 2 359 356 353 352 351 350 349 348 347 345 343 341 339 336 333 331 328 325 322 320 317 313 311 308 305 302 300 299 297 296 295 294 293 291 288 287 287 287 289 289 286 281 278 275 273 273 273 274 275 276 276 275 274 276 279 281 283 285 286 288 292 296 300 301 299 297 299 303 306 303 301
37 33 30 27 25 23 21 19 17 14 10 6 2 359 357 355 354 353 352 351 350 349 347 345 343 341 338 336 334 331 328 326 322 320 317 314 311 307 304 301 298 295 293 292 291 290 289 287 285 284 284 283 283 284 284 281 277 274 272 270 270 271 272 273 274 273 271 271 275 279 283 286 288 291 295 299 302 301 298 297 299 302 301 299 300
29 26 24 23 21 20 18 16 13 10 5 2 359 358 357 356 356 355 353 352 350 349 347 344 342 340 338 335 333 330 327 324 321 319 316 313 310 307 304 301 298 295 292 290 288 287 285 283 281 281 280 280 280 279 279 279 276 272 271 269 268 268 269 271 272 272 271 271 274 280 285 288 291 294 296 301 302 298 295 296 298 299 296 297 300
Height
5840 5840 5839 5838 5838 5838 5837 5837 5837 5837 5836 5836 5836 5835 5835 5834 5834 5834 5835 5835 5835 5834 5834 5833 5833 5833 5833 5833 5833 5833 5833 5833 5833 5832 5831 5831 5831 5830 5831 5830 5830 5830 5831 5831 5831 5831 5830 5831 5831 5831 5831 5830 5829 5829 5829 5828 5828 5828 5828 5829 5829 5829 5829 5829 5829 5829 5829 5829 5828 5828 5828 5828 5828 5828 5827 5827 5826 5826 5825 5825 5825 5825 5825 5825 5825
5839 5838 5838 5837 5836 5836 5836 5836 5836 5835 5835 5834 5834 5834 5833 5833 5832 5832 5832 5833 5833 5832 5832 5831 5831 5831 5831 5831 5831 5831 5831 5831 5830 5830 5829 5829 5829 5829 5829 5828 5828 5828 5829 5829 5829 5828 5828 5828 5829 5829 5828 5828 5828 5827 5827 5826 5826 5826 5826 5826 5826 5826 5826 5827 5827 5827 5827 5826 5826 5826 5826 5826 5825 5825 5825 5825 5824 5823 5823 5823 5822 5822 5822 5822 5822
5838 5838 5837 5835 5835 5836 5836 5835 5835 5834 5833 5833 5833 5832 5832 5832 5831 5831 5831 5831 5831 5831 5830 5830 5829 5829 5829 5829 5829 5828 5828 5828 5828 5828 5827 5828 5828 5827 5827 5826 5826 5826 5826 5827 5826 5826 5827 5826 5826 5826 5826 5826 5826 5826 5825 5824 5824 5824 5824 5824 5824 5824 5824 5825 5825 5824 5824 5824 5824 5824 5823 5823 5823 5823 5823 5822 5822 5821 5821 5820 5820 5820 5819 5819 5819
5837 5836 5835 5834 5834 5834 5835 5834 5834 5833 5832 5832 5832 5831 5831 5830 5830 5830 5830 5830 5830 5829 5828 5828 5827 5827 5827 5826 5826 5826 5826 5826 5826 5826 5826 5826 5826 5826 5825 5824 5824 5824 5824 5824 5824 5825 5825 5825 5824 5824 5824 5824 5824 5824 5823 5823 5823 5822 5822 5822 5822 5822 5822 5823 5823 5822 5822 5822 5821 5821 5821 5821 5821 5820 5820 5820 5820 5819 5819 5818 5817 5817 5817 5817 5817
5835 5835 5834 5833 5833 5832 5832 5832 5832 5832 5831 5831 5831 5830 5830 5829 5829 5829 5828 5828 5828 5828 5827 5827 5826 5826 5825 5825 5825 5824 5824 5824 5824 5824 5824 5824 5824 5824 5823 5823 5822 5822 5822 5822 5822 5822 5822 5823 5823 5823 5822 5822 5822 5822 5822 5822 5822 5821 5821 5821 5821 5821 5821 5821 5821 5821 5820 5820 5819 5819 5819 5818 5818 5818 5818 5817 5817 5817 5816 5816 5815 5815 5815 5815 5815
5834 5834 5833 5832 5831 5831 5830 5831 5831 5831 5830 5830 5830 5829 5829 5828 5828 5828 5827 5827 5827 5827 5826 5825 5825 5824 5824 5824 5823 5822 5822 5822 5822 5822 5822 5822 5822 5822 5821 5821 5820 5820 5820 5820 5821 5821 5821 5822 5822 5821 5821 5821 5820 5820 5820 5820 5820 5819 5820 5820 5820 5819 5819 5819 5819 5818 5818 5818 5818 5817 5817 5816 5816 5816 5815 5815 5815 5815 5814 5814 5814 5814 5813 5813 5813
5833 5833 5832 5831 5830 5831 5830 5830 5830 5830 5830 5829 5829 5828 5828 5827 5827 5827 5826 5826 5826 5826 5825 5824 5824 5823 5823 5822 5821 5821 5821 5821 5821 5820 5820 5820 5820 5820 5819 5818 5818 5818 5818 5818 5819 5820 5820 5820 5820 5820 5819 5819 5818 5819 5818 5818 5818 5818 5818 5818 5818 5818 5817 5817 5817 5816 5816 5816 5816 5815 5815 5814 5814 5814 5813 5813 5813 5813 5813 5812 5812 5812 5812 5811 5811
5832 5831 5831 5831 5830 5830 5830 5830 5829 5829 5829 5828 5828 5827 5827 5827 5826 5826 5825 5825 5824 5824 5824 5823 5822 5822 5822 5821 5820 5820 5820 5820 5819 5819 5818 5818 5818 5818 5818 5817 5816 5817 5817 5817 5818 5818 5818 5818 5818 5818 5817 5817 5816 5817 5817 5817 5816 5816 5816 5816 5816 5816 5816 5816 5816 5815 5815 5815 5814 5814 5813 5812 5812 5812 5812 5812 5811 5811 5811 5811 5811 5810 5810 5810 5809
5831 5830 5830 5830 5829 5829 5829 5829 5828 5828 5828 5827 5826 5826 5826 5826 5825 5825 5824 5824 5823 5823 5822 5821 5821 5820 5820 5819 5818 5818 5818 5818 5818 5817 5817 5816 5816 5817 5816 5815 5815 5816 5816 5816 5816 5816 5816 5816 5816 5816 5816 5815 5815 5815 5815 5815 5815 5815 5815 5815 5815 5815 5815 5815 5815 5815 5814 5814 5813 5812 5811 5811 5810 5810 5810 5810 5810 5810 5809 5809 5809 5808 5808 5808 5807
5830 5829 5829 5828 5827 5827 5827 5827 5827 5827 5826 5826 5826 5825 5825 5824 5824 5824 5823 5822 5822 5822 5821 5820 5819 5819 5819 5817 5816 5817 5817 5816 5816 5816 5815 5815 5815 5815 5814 5814 5814 5815 5815 5814 5814 5814 5814 5814 5814 5814 5814 5814 5814 5813 5813 5813 5813 5813 5813 5813 5813 5814 5814 5814 5814 5814 5813 5813 5812 5811 5810 5809 5809 5809 5809 5809 5808 5808 5807 5807 5807 5807 5806 5806 5806
5829 5829 5828 5827 5826 5826 5825 5825 5825 5825 5825 5825 5825 5824 5824 5823 5822 5823 5822 5821 5821 5820 5819 5819 5818 5818 5817 5816 5815 5815 5815 5815 5815 5815 5814 5814 5814 5813 5813 5813 5812 5813 5814 5813 5813 5813 5813 5813 5813 5813 5813 5813 5813 5812 5811 5811 5811 5811 5812 5812 5813 5813 5813 5812 5812 5812 5812 5811 5810 5809 5809 5808 5808 5808 5807 5807 5806 5806 5806 5805 5805 5805 5805 5804 5804
5828 5827 5827 5826 5825 5825 5825 5824 5823 5823 5823 5823 5823 5823 5823 5822 5821 5821 5821 5820 5820 5819 5818 5817 5816 5816 5816 5815 5814 5813 5814 5814 5814 5813 5813 5812 5812 5812 5812 5812 5811 5812 5812 5811 5811 5812 5812 5812 5812 5811 5811 5811 5811 5810 5809 5809 5810 5810 5811 5811 5812 5812 5811 5811 5811 5810 5809 5809 5808 5808 5807 5807 5807 5806 5805 5805 5804 5804 5804 5804 5804 5804 5803 5803 5802
5827 5826 5826 5825 5824 5825 5824 5823 5823 5822 5822 5822 5822 5822 5822 5821 5820 5820 5820 5819 5818 5817 5816 5815 5814 5814 5814 5814 5813 5812 5812 5812 5812 5811 5811 5811 5811 5811 5811 5811 5811 5810 5810 5810 5810 5810 5811 5811 5811 5810 5810 5809 5809 5808 5807 5808 5808 5809 5810 5810 5811 5810 5810 5810 5809 5808 5807 5807 5806 5806 5806 5805 5804 5804 5803 5803 5803 5802 5802 5802 5802 5802 5802 5801 5801
5826 5825 5825 5824 5823 5823 5823 5823 5822 5822 5822 5821 5821 5821 5821 5820 5819 5819 5818 5818 5817 5816 5815 5814 5813 5812 5812 5812 5812 5812 5811 5810 5810 5810 5810 5810 5810 5810 5810 5810 5810 5810 5809 5809 5809 5809 5809 5809 5809 5809 5808 5808 5807 5807 5806 5807 5807 5808 5808 5809 5809 5809 5809 5808 5807 5806 5806 5805 5805 5804 5804 5803 5803 5802 5802 5801 5801 5801 5801 5800 5800 5800 5800 5799 5799
5824 5824 5823 5822 5822 5822 5822 5822 5822 5822 5821 5820 5820 5820 5820 5819 5819 5818 5817 5817 5816 5815 5814 5813 5812 5811 5811 5811 5811 5810 5810 5809 5809 5809 5808 5808 5809 5809 5809 5809 5809 5809 5809 5809 5809 5808 5808 5808 5808 5808 5807 5807 5806 5806 5805 5806 5806 5807 5807 5807 5808 5807 5807 5806 5805 5804 5804 5803 5803 5802 5802 5802 5801 5800 5800 5800 5799 5799 5799 5799 5799 5798 5798 5797 5797
5823 5823 5822 5821 5821 5821 5821 5821 5821 5821 5820 5820 5820 5819 5819 5819 5818 5817 5817 5816 5815 5814 5813 5812 5811 5810 5810 5810 5810 5810 5809 5808 5808 5808 5808 5808 5808 5808 5808 5808 5809 5809 5808 5808 5808 5807 5807 5807 5807 5806 5806 5805 5805 5804 5804 5804 5805 5805 5805 5806 5806 5806 5805 5804 5803 5803 5802 5801 5801 5800 5800 5799 5799 5798 5798 5798 5797 5798 5798 5797 5797 5797 5796 5795 5795
5822 5821 5821 5821 5820 5820 5820 5820 5820 5820 5819 5819 5819 5818 5818 5817 5817 5816 5816 5815 5814 5813 5812 5811 5810 5809 5809 5809 5809 5809 5808 5808 5807 5807 5807 5807 5807 5808 5808 5808 5808 5808 5808 5808 5807 5806 5806 5806 5805 5805 5804 5804 5803 5803 5803 5803 5803 5803 5803 5804 5804 5804 5803 5803 5802 5801 5801 5800 5799 5798 5798 5797 5796 5795 5795 5795 5796 5796 5796 5795 5795 5794 5794 5793 5792
5821 5820 5820 5820 5820 5820 5820 5820 5819 5819 5819 5818 5818 5818 5817 5816 5816 5815 5814 5814 5813 5812 5811 5810 5810 5809 5808 5808 5808 5808 5808 5808 5807 5807 5807 5807 5807 5807 5807 5807 5807 5808 5807 5807 5806 5806 5805 5805 5804 5804 5804 5803 5803 5802 5802 5803 5802 5802 5802 5802 5802 5802 5801 5801 5800 5800 5799 5798 5797 5796 5796 5794 5794 5793 5794 5794 5795 5794 5793 5793 5792 5791 5791 5790 5790
5820 5820 5819 5819 5820 5820 5820 5819 5819 5819 5818 5818 5817 5817 5816 5816 5815 5814 5813 5812 5812 5811 5810 5809 5809 5808 5808 5808 5807 5807 5808 5807 5807 5806 5806 5806 5806 5806 5807 5807 5806 5807 5806 5806 5806 5805 5805 5805 5804 5804 5803 5803 5802 5802 5802 5802 5802 5801 5801 5800 5800 5799 5799 5799 5798 5798 5797 5797 5796 5795 5794 5792 5791 5792 5793 5793 5792 5792 5791 5790 5789 5789 5788 5788 5787
5819 5819 5819 5819 5819 5819 5819 5819 5818 5818 5818 5817 5816 5815 5815 5814 5814 5813 5812 5811 5810 5809 5809 5808 5807 5807 5807 5807 5807 5807 5807 5807 5806 5806 5806 5805 5805 5805 5806 5806 5805 5805 5805 5805 5805 5805 5805 5804 5804 5803 5803 5803 5802 5802 5802 5802 5801 5800 5799 5799 5798 5798 5797 5797 5797 5797 5796 5796 5795 5794 5793 5790 5790 5791 5792 5791 5790 5789 5789 5788 5787 5787 5786 5786 5785
5818 5818 5819 5819 5819 5819 5818 5818 5818 5817 5817 5816 5815 5815 5814 5813 5813 5812 5811 5810 5809 5808 5808 5807 5806 5806 5807 5806 5806 5806 5806 5806 5806 5806 5805 5805 5805 5804 5804 5804 5804 5804 5804 5804 5804 5804 5803 5803 5802 5802 5803 5802 5802 5802 5802 5801 5800 5799 5799 5798 5797 5797 5796 5796 5796 5795 5795 5794 5794 5794 5791 5789 5790 5791 5791 5789 5787 5787 5787 5786 5785 5785 5784 5783 5783
5818 5818 5819 5819 5819 5818 5818 5818 5817 5816 5816 5815 5815 5814 5813 5812 5812 5811 5810 5809 5808 5808 5807 5807 5806 5806 5806 5806 5806 5806 5806 5805 5805 5805 5805 5805 5804 5804 5804 5803 5803 5803 5803 5803 5803 5803 5802 5802 5801 5801 5801 5801 5801 5801 5800 5800 5799 5799 5798 5797 5796 5796 5795 5794 5794 5794 5794 5793 5792 5791 5789 5789 5790 5791 5790 5787 5785 5785 5785 5785 5784 5783 5782 5781 5781
5818 5818 5819 5819 5818 5818 5818 5817 5817 5816 5816 5815 5814 5814 5813 5812 5811 5810 5810 5809 5808 5808 5808 5807 5807 5806 5806 5806 5805 5805 5805 5804 5804 5804 5803 5803 5803 5803 5802 5802 5802 5802 5802 5802 5802 5802 5801 5801 5800 5800 5800 5800 5800 5800 5799 5798 5798 5798 5797 5796 5795 5794 5793 5793 5792 5792 5792 5791 5790 5789 5788 5789 5789 5788 5787 5785 5783 5784 5784 5783 5782 5781 5780 5780 5779
5818 5818 5818 5818 5818 5818 5818 5817 5817 5816 5816 5815 5814 5813 5812 5811 5811 5810 5810 5809 5808 5808 5808 5807 5807 5806 5806 5806 5805 5805 5804 5803 5803 5803 5803 5802 5802 5801 5801 5801 5801 5801 5801 5801 5801 5801 5800 5800 5799 5799 5799 5799 5799 5798 5797 5797 5796 5796 5795 5795 5794 5793 5792 5792 5791 5791 5790 5789 5788 5787 5787 5787 5786 5785 5784 5783 5783 5783 5783 5781 5780 5779 5779 5778 5777
5818 5818 5818 5818 5818 5818 5818 5817 5817 5816 5816 5815 5815 5814 5813 5812 5811 5811 5810 5810 5809 5808 5808 5807 5807 5807 5806 5806 5805 5804 5804 5803 5803 5802 5802 5802 5801 5801 5801 5801 5801 5801 5801 5800 5800 5800 5799 5799 5798 5798 5798 5798 5797 5796 5795 5795 5794 5794 5793 5793 5792 5792 5791 5790 5790 5789 5788 5787 5786 5785 5786 5785 5784 5783 5782 5782 5781 5781 5781 5780 5779 5778 5777 5776 5775
5818 5817 5817 5818 5818 5818 5818 5817 5817 5816 5816 5816 5815 5814 5813 5812 5812 5811 5811 5810 5809 5809 5808 5808 5808 5807 5807 5806 5805 5805 5804 5803 5803 5802 5802 5801 5801 5801 5801 5801 5800 5800 5800 5800 5799 5799 5799 5798 5798 5797 5796 5796 5795 5794 5794 5793 5793 5792 5792 5792 5791 5791 5790 5789 5789 5788 5787 5786 5784 5784 5784 5783 5782 5781 5780 5780 5780 5779 5779 5778 5777 5776 5775 5774 5773
5817 5817 5817 5818 5818 5818 5818 5817 5817 5817 5816 5816 5815 5815 5814 5813 5812 5812 5811 5810 5809 5809 5809 5808 5808 5808 5807 5806 5805 5805 5804 5803 5803 5802 5801 5801 5801 5800 5800 5800 5800 5800 5799 5799 5799 5799 5798 5798 5797 5796 5795 5795 5794 5793 5793 5792 5792 5791 5791 5791 5790 5790 5789 5788 5788 5787 5786 5784 5782 5781 5782 5782 5781 5780 5779 5778 5778 5778 5777 5776 5776 5775 5773 5773 5772
5818 5818 5818 5818 5818 5818 5818 5817 5817 5817 5817 5817 5816 5815 5815 5814 5813 5812 5811 5810 5810 5809 5809 5808 5808 5807 5806 5806 5805 5804 5804 5803 5803 5802 5801 5801 5800 5800 5800 5800 5799 5799 5798 5798 5798 5798 5797 5797 5796 5795 5795 5794 5794 5793 5792 5791 5791 5790 5790 5790 5789 5789 5788 5788 5787 5786 5786 5784 5780 5779 5780 5780 5780 5778 5777 5777 5776 5776 5775 5775 5774 5773 5772 5771 5770
5819 5819 5819 5819 5819 5818 5818 5818 5818 5818 5817 5817 5816 5816 5815 5814 5813 5812 5811 5811 5810 5809 5809 5808 5808 5807 5806 5805 5805 5804 5804 5803 5803 5802 5801 5800 5800 5800 5800 5799 5799 5798 5798 5797 5797 5796 5796 5796 5795 5794 5793 5793 5793 5792 5791 5790 5789 5789 5789 5789 5788 5788 5787 5787 5786 5785 5785 5782 5777 5777 5779 5779 5778 5777 5776 5776 5775 5774 5774 5773 5772 5771 5770 5770 5769
5819 5820 5820 5819 5819 5819 5819 5819 5818 5818 5818 5817 5817 5816 5815 5814 5813 5813 5812 5811 5810 5810 5809 5809 5808 5807 5806 5806 5805 5804 5804 5803 5802 5802 5801 5800 5800 5800 5799 5799 5798 5798 5797 5797 5796 5796 5795 5794 5794 5793 5792 5791 5791 5791 5790 5789 5788 5788 5787 5787 5786 5786 5786 5785 5785 5784 5783 5781 5775 5774 5776 5776 5776 5775 5774 5774 5774 5773 5771 5770 5770 5769 5768 5767 5766
5820 5820 5820 5820 5820 5820 5819 5819 5819 5819 5818 5818 5817 5817 5816 5815 5814 5813 5812 5812 5811 5810 5810 5809 5808 5807 5806 5806 5805 5804 5803 5803 5802 5801 5800 5800 5800 5799 5799 5798 5798 5797 5796 5796 5795 5795 5794 5793 5792 5792 5791 5790 5790 5789 5789 5788 5787 5786 5786 5785 5785 5784 5784 5783 5783 5782 5781 5780 5775 5772 5773 5774 5773 5772 5772 5772 5772 5771 5769 5768 5767 5767 5766 5765 5764
5821 5821 5821 5821 5820 5820 5820 5820 5819 5819 5819 5818 5818 5817 5816 5816 5815 5814 5813 5813 5812 5811 5811 5810 5809 5808 5807 5806 5805 5804 5803 5802 5801 5800 5800 5799 5799 5798 5797 5797 5796 5796 5795 5795 5794 5794 5793 5792 5791 5791 5790 5789 5788 5788 5787 5786 5786 5785 5784 5784 5783 5782 5782 5781 5781 5780 5779 5778 5775 5771 5771 5772 5771 5770 5770 5769 5770 5769 5767 5766 5765 5764 5764 5763 5761
5821 5821 5821 5821 5821 5820 5820 5820 5820 5819 5819 5818 5818 5817 5817 5816 5815 5815 5814 5814 5813 5812 5811 5810 5809 5808 5807 5806 5805 5804 5803 5802 5801 5800 5799 5798 5798 5797 5796 5795 5795 5794 5793 5793 5793 5792 5791 5790 5790 5789 5788 5787 5786 5786 5785 5784 5784 5783 5782 5782 5781 5781 5780 5780 5779 5778 5777 5776 5774 5771 5770 5770 5769 5768 5767 5766 5766 5766 5765 5764 5762 5762 5761 5760 5759
5822 5822 5821 5821 5821 5821 5820 5820 5820 5819 5819 5819 5818 5818 5817 5816 5816 5815 5815 5814 5813 5812 5811 5810 5809 5808 5807 5806 5805 5804 5803 5802 5801 5800 5799 5798 5797 5796 5795 5795 5794 5793 5792 5791 5791 5790 5790 5789 5788 5787 5786 5785 5784 5784 5783 5782 5781 5781 5780 5779 5779 5778 5778 5777 5777 5776 5775 5773 5772 5769 5768 5768 5767 5766 5765 5763 5763 5763 5761 5761 5760 5759 5758 5757 5756
5822 5822 5822 5821 5821 5821 5821 5820 5820 5819 5819 5819 5818 5818 5817 5816 5816 5815 5814 5813 5812 5811 5810 5809 5808 5807 5806 5805 5804 5803 5802 5801 5800 5799 5798 5797 5796 5795 5794 5793 5792 5791 5790 5790 5789 5788 5788 5787 5786 5785 5784 5783 5782 5782 5781 5780 5779 5779 5778 5777 5776 5776 5775 5775 5774 5773 5772 5770 5769 5767 5766 5766 5765 5764 5763 5761 5759 5759 5759 5758 5757 5756 5755 5754 5753
5823 5822 5822 5822 5821 5821 5821 5820 5820 5819 5819 5818 5818 5817 5816 5816 5815 5814 5813 5812 5811 5810 5809 5808 5807 5806 5805 5804 5803 5802 5801 5800 5798 5797 5796 5796 5794 5794 5793 5792 5791 5790 5789 5787 5787 5786 5785 5784 5783 5782 5781 5781 5780 5779 5778 5778 5777 5776 5775 5774 5773 5772 5772 5771 5771 5770 5768 5767 5766 5765 5764 5763 5762 5761 5761 5759 5757 5757 5756 5755 5754 5753 5752 5751 5750
5823 5823 5823 5822 5822 5821 5821 5820 5820 5819 5819 5818 5817 5816 5816 5815 5814 5813 5812 5811 5810 5809 5808 5807 5806 5805 5804 5803 5802 5801 5800 5799 5797 5796 5795 5794 5793 5792 5791 5791 5790 5789 5787 5786 5785 5784 5783 5782 5781 5780 5779 5778 5777 5776 5775 5775 5774 5773 5772 5771 5770 5769 5769 5768 5768 5767 5765 5764 5764 5763 5761 5760 5759 5758 5758 5757 5755 5754 5753 5752 5751 5750 5749 5748 5747
5824 5823 5823 5823 5822 5822 5821 5820 5820 5819 5818 5817 5816 5816 5815 5814 5813 5812 5811 5810 5809 5808 5807 5806 5806 5805 5804 5802 5801 5800 5799 5798 5797 5795 5794 5793 5792 5791 5790 5789 5788 5787 5786 5785 5783 5782 5781 5780 5779 5778 5777 5776 5775 5774 5773 5772 5771 5770 5769 5768 5767 5766 5766 5765 5765 5763 5762 5762 5761 5760 5759 5758 5756 5755 5755 5754 5753 5752 5751 5750 5749 5748 5747 5745 5744
5824 5823 5823 5822 5822 5822 5821 5820 5820 5819 5818 5817 5816 5815 5814 5814 5813 5812 5811 5810 5809 5808 5807 5806 5805 5804 5802 5801 5800 5799 5798 5796 5795 5794 5793 5792 5791 5789 5788 5787 5786 5785 5784 5783 5782 5780 5778 5777 5776 5775 5774 5773 5772 5771 5770 5769 5769 5768 5767 5766 5765 5764 5763 5762 5761 5760 5760 5759 5758 5757 5756 5755 5754 5753 5752 5751 5750 5749 5748 5747 5747 5746 5744 5743 5741
5824 5824 5823 5823 5822 5822 5821 5820 5819 5818 5817 5817 5816 5815 5815 5814 5813 5812 5811 5810 5809 5808 5807 5805 5804 5803 5802 5800 5799 5798 5797 5795 5794 5793 5791 5790 5789 5788 5786 5785 5784 5782 5782 5781 5780 5778 5776 5775 5773 5772 5771 5770 5769 5768 5768 5767 5766 5765 5764 5763 5762 5761 5760 5759 5758 5757 5757 5756 5755 5755 5754 5752 5751 5750 5749 5749 5748 5747 5746 5745 5744 5743 5742 5740 5738
5824 5824 5824 5823 5823 5822 5821 5820 5819 5819 5818 5817 5816 5816 5815 5814 5813 5812 5811 5810 5809 5807 5806 5805 5804 5802 5801 5800 5799 5797 5796 5794 5793 5792 5790 5789 5787 5786 5784 5783 5782 5780 5779 5778 5777 5776 5774 5773 5771 5769 5768 5767 5766 5765 5764 5764 5763 5762 5761 5760 5759 5758 5757 5756 5755 5754 5754 5753 5752 5752 5751 5750 5748 5748 5747 5746 5745 5745 5744 5743 5741 5740 5739 5737 5736
5825 5824 5824 5823 5823 5822 5821 5821 5820 5820 5819 5818 5817 5816 5815 5814 5813 5812 5811 5809 5808 5807 5805 5804 5803 5802 5801 5799 5798 5797 5795 5794 5792 5791 5789 5788 5786 5785 5783 5781 5780 5778 5777 5775 5774 5773 5772 5771 5769 5767 5765 5764 5763 5763 5761 5760 5759 5758 5758 5757 5756 5755 5754 5753 5752 5751 5751 5750 5749 5749 5748 5747 5745 5745 5744 5744 5743 5742 5742 5740 5739 5737 5736 5734 5733
5826 5825 5825 5824 5823 5823 5822 5822 5821 5820 5819 5818 5817 5816 5815 5814 5813 5811 5810 5809 5807 5806 5805 5804 5802 5801 5799 5798 5797 5795 5794 5792 5791 5789 5788 5786 5785 5783 5781 5779 5778 5776 5774 5773 5772 5770 5769 5768 5767 5765 5763 5761 5760 5759 5758 5757 5756 5755 5754 5753 5753 5752 5752 5751 5749 5749 5748 5747 5747 5746 5745 5744 5743 5742 5742 5741 5740 5740 5739 5738 5736 5735 5733 5732 5730
5827 5826 5826 5825 5824 5824 5824 5823 5822 5821 5820 5819 5818 5816 5815 5814 5812 5811 5809 5808 5806 5805 5804 5803 5801 5800 5798 5796 5794 5793 5791 5790 5788 5786 5785 5783 5782 5781 5779 5777 5775 5773 5771 5770 5768 5767 5765 5764 5763 5762 5761 5759 5757 5755 5755 5754 5753 5752 5751 5750 5750 5749 5750 5749 5746 5745 5745 5745 5744 5743 5743 5742 5741 5740 5739 5738 5738 5737 5736 5735 5733 5732 5731 5729 5727
5828 5827 5827 5826 5825 5825 5824 5823 5822 5821 5820 5819 5817 5816 5815 5813 5812 5810 5809 5807 5806 5804 5803 5802 5800 5798 5796 5794 5792 5790 5790 5788 5787 5785 5782 5781 5779 5778 5776 5774 5772 5770 5768 5767 5765 5763 5761 5760 5758 5757 5757 5756 5754 5752 5750 5750 5750 5749 5748 5748 5747 5746 5746 5746 5744 5742 5742 5741 5740 5740 5740 5739 5739 5737 5736 5735 5735 5734 5733 5732 5731 5730 5728 5727 5725
5829 5828 5828 5827 5826 5825 5824 5823 5822 5821 5820 5819 5817 5816 5814 5813 5811 5810 5808 5807 5805 5804 5802 5801 5799 5798 5796 5794 5791 5790 5789 5787 5785 5783 5781 5779 5777 5775 5773 5771 5769 5767 5765 5763 5761 5759 5757 5756 5754 5752 5752 5752 5751 5749 5747 5746 5746 5746 5745 5744 5744 5743 5743 5743 5741 5740 5739 5738 5737 5737 5737 5736 5735 5734 5733 5733 5732 5732 5731 5730 5728 5727 5725 5724 5723
5830 5829 5829 5828 5827 5826 5825 5824 5823 5822 5820 5819 5817 5816 5814 5813 5811 5810 5808 5807 5805 5803 5802 5801 5799 5797 5796 5794 5791 5789 5787 5785 5783 5781 5779 5776 5774 5772 5770 5768 5765 5764 5762 5759 5757 5756 5754 5752 5750 5748 5747 5746 5746 5746 5744 5742 5741 5741 5741 5740 5740 5739 5739 5739 5739 5738 5736 5735 5734 5734 5734 5733 5733 5731 5731 5730 5730 5729 5728 5727 5725 5723 5722 5721 5720
5831 5830 5829 5829 5828 5827 5826 5824 5823 5822 5820 5819 5817 5816 5814 5813 5811 5810 5808 5806 5805 5803 5801 5800 5798 5796 5794 5793 5790 5788 5786 5784 5782 5779 5777 5774 5772 5770 5768 5765 5763 5761 5758 5756 5754 5752 5750 5749 5747 5745 5743 5741 5739 5740 5740 5739 5738 5737 5736 5736 5736 5735 5735 5735 5735 5735 5734 5732 5730 5731 5731 5730 5730 5729 5728 5727 5727 5726 5725 5723 5722 5720 5719 5719 5718
5832 5831 5830 5829 5828 5827 5826 5825 5823 5822 5820 5819 5817 5816 5814 5813 5811 5809 5807 5806 5804 5802 5800 5799 5797 5795 5793 5791 5789 5786 5784 5782 5779 5777 5774 5772 5770 5768 5765 5763 5760 5757 5754 5752 5750 5748 5747 5745 5743 5741 5739 5737 5735 5734 5734 5734 5734 5733 5732 5732 5731 5731 5731 5731 5731 5732 5732 5730 5728 5728 5728 5727 5727 5726 5725 5724 5724 5723 5721 5720 5719 5718 5717 5717 5716
5832 5831 5830 5829 5828 5827 5826 5824 5823 5822 5820 5819 5817 5816 5814 5812 5810 5809 5807 5805 5803 5801 5799 5797 5795 5793 5790 5788 5786 5783 5781 5778 5776 5773 5770 5768 5765 5763 5760 5757 5755 5753 5750 5748 5746 5744 5743 5741 5739 5737 5734 5733 5731 5729 5728 5729 5729 5729 5728 5728 5727 5727 5727 5727 5728 5728 5729 5728 5727 5726 5725 5724 5723 5723 5722 5721 5721 5720 5718 5717 5716 5716 5716 5715 5714
5832 5831 5830 5829 5828 5827 5826 5824 5823 5821 5820 5818 5817 5815 5813 5811 5810 5808 5806 5804 5802 5800 5797 5795 5793 5791 5788 5786 5783 5780 5777 5774 5771 5768 5765 5762 5760 5757 5754 5751 5748 5746 5744 5742 5740 5739 5737 5735 5733 5732 5730 5728 5727 5726 5724 5724 5724 5725 5724 5724 5723 5723 5723 5724 5724 5725 5725 5726 5725 5723 5722 5720 5720 5719 5719 5719 5718 5717 5716 5715 5715 5715 5715 5714 5713